Hourly Data Report for September 13, 2017

All times are specified in Local Standard Time (LST). Add 1 hour to adjust for Daylight Saving Time where and when it is observed.

CHARLOTTETOWN A
PRINCE EDWARD ISLAND

46°17'21.000" N
63°07'09.000" W
48.50 m
8300301
71706
YYG

Download Data

Hourly Data (September 2017)
Hourly Data Report for September 13, 2017
Temp Definition
°C
Dew Point Temp Definition
°C
Rel Hum Definition
%
Wind Dir Definition
10's deg

Wind Spd Definition
km/h
Visibility Definition
km
Stn Press Definition
kPa
Hmdx Definition


Wind Chill Definition


Weather Definition


TIME
00:00 Legend Double Dagger 12.2 10.1 87 36 1 24.1 99.94     LegendNANA
01:00 Legend Double Dagger 12.1 10.5 90 32 3 24.1 99.92     LegendNANA
02:00 Legend Double Dagger 10.4 8.5 87 32 4 24.1 99.91     Mainly Clear
03:00 Legend Double Dagger 11.3 9.4 88 32 5 24.1 99.93     LegendNANA
04:00 Legend Double Dagger 9.9 8.3 90 35 6 24.1 99.94     LegendNANA
05:00 Legend Double Dagger 11.0 9.4 90 31 7 24.1 99.94     Clear
06:00 Legend Double Dagger 9.1 7.7 91 30 7 24.1 99.97     LegendNANA
07:00 Legend Double Dagger 12.5 11.4 93 31 8 24.1 100.04     LegendNANA
08:00 Legend Double Dagger 15.3 12.9 86 28 7 24.1 100.05     Clear
09:00 Legend Double Dagger 17.2 13.6 79 24 8 24.1 100.09     LegendNANA
10:00 Legend Double Dagger 19.2 14.5 74 24 12 24.1 100.07     LegendNANA
11:00 Legend Double Dagger 21.0 14.3 65 27 16 24.1 100.04 25   Clear
12:00 Legend Double Dagger 22.3 14.4 61 29 13 24.1 100.01 26   LegendNANA
13:00 Legend Double Dagger 23.1 13.3 54 29 17 24.1 99.98 26   LegendNANA
14:00 Legend Double Dagger 23.8 13.1 51 30 15 24.1 99.95 27   Mainly Clear
15:00 Legend Double Dagger 24.0 12.2 47 29 22 24.1 99.96 26   LegendNANA
16:00 Legend Double Dagger 24.5 12.3 46 29 14 24.1 99.97 27   LegendNANA
17:00 Legend Double Dagger 24.0 11.9 46 28 8 24.1 99.97 26   Clear
18:00 Legend Double Dagger 21.8 12.8 56 23 9 24.1 100.00     LegendNANA
19:00 Legend Double Dagger 19.9 13.8 67 24 14 24.1 100.03     LegendNANA
20:00 Legend Double Dagger 18.6 13.8 73 24 16 24.1 100.08     Mainly Clear
21:00 Legend Double Dagger 17.9 13.3 74 24 13 24.1 100.08     LegendNANA
22:00 Legend Double Dagger 17.5 13.5 77 25 14 24.1 100.08     LegendNANA
23:00 Legend Double Dagger 17.0 13.6 80 24 13 24.1 100.08     Clear

Notes on Data Quality.

Legend

  • E = Estimated
  • M = Missing
  • NA = Not Available
  • ‡ = Partner data that is not subject to review by the National Climate Archives
Date modified: